Temp
25 25 25 25 25 25 25 25 25 25 25 25 25 25 25 25 25 25 25 25 25 25 25 25 25 25 25 25 25 25 25 25 25 25 25 25 25 25 24 24 24 24 24 24 24 24 25 25 24 24 24 24 25 25 24 24 24 24 24 24 24 23 23 22 22 22 23 24 24 24 24 24 24 24 24 24 24 24 24 24 24 24 24 24 24
24 25 25 25 25 25 25 25 25 25 25 25 25 25 25 25 25 25 25 25 25 25 25 25 25 25 25 25 25 25 25 25 25 25 25 25 25 25 25 24 24 24 24 24 24 24 24 24 24 24 24 24 24 24 24 24 24 24 24 24 24 23 23 23 22 22 23 23 24 24 24 24 24 23 23 23 23 23 24 24 24 24 24 24 24
24 24 24 24 24 25 24 24 24 24 24 25 25 25 25 25 25 25 25 25 25 25 25 25 25 25 25 25 25 25 25 25 25 25 25 25 25 25 25 24 24 24 24 24 24 24 24 24 24 24 24 24 24 24 24 24 24 24 24 23 23 23 23 23 22 22 22 23 23 23 23 23 23 23 23 23 23 23 23 23 24 24 23 23 23
24 24 24 24 24 24 24 24 24 24 24 24 25 25 25 25 25 25 25 25 25 25 25 25 25 25 25 25 25 25 25 25 25 25 25 24 24 24 24 24 24 24 24 24 24 24 24 24 24 24 24 24 24 24 24 24 24 24 23 23 23 23 23 23 22 22 21 21 22 22 22 22 22 22 22 22 22 22 22 23 23 23 23 23 23
24 24 24 24 24 24 24 24 24 24 24 24 25 25 25 25 25 25 25 25 25 25 25 25 25 25 25 25 25 25 26 25 25 25 25 24 24 24 24 24 24 24 24 24 24 24 24 24 24 24 24 24 24 24 24 23 23 24 23 23 23 23 23 23 22 22 21 21 21 21 22 21 21 21 21 21 21 22 22 22 22 22 22 22 22
24 24 24 23 23 23 23 23 23 24 24 24 24 25 25 25 25 25 25 25 25 25 25 25 25 25 25 25 25 26 26 26 25 25 25 24 24 24 24 24 24 24 24 24 24 24 24 24 24 24 24 24 24 24 24 23 23 23 23 23 22 23 23 23 22 22 21 21 20 21 21 21 21 21 21 20 20 21 21 21 21 21 21 21 21
24 24 23 23 23 23 23 23 24 24 24 24 24 25 25 25 25 25 25 25 25 25 25 25 25 25 25 25 25 26 26 26 26 25 25 25 24 24 24 24 24 24 24 24 24 24 24 24 24 24 24 23 23 23 24 23 23 23 22 22 22 22 22 22 22 22 21 20 20 20 20 20 20 21 20 20 20 20 20 20 20 20 20 20 20
23 23 23 23 23 23 23 24 24 24 24 24 24 24 25 25 25 25 25 25 25 25 25 25 25 25 25 25 25 25 25 25 25 25 25 25 25 24 24 24 24 24 24 25 24 24 24 24 23 23 23 23 23 23 23 23 22 22 22 22 22 22 22 22 21 21 20 20 20 20 20 20 20 20 20 20 20 19 19 19 19 20 20 20 20
24 23 23 23 23 23 24 24 24 23 23 23 24 24 24 24 25 25 25 25 25 25 25 25 25 25 25 25 25 25 25 26 26 25 25 25 25 24 24 24 24 24 24 23 22 21 21 22 23 23 23 22 22 23 23 22 22 22 22 22 22 21 21 21 20 20 19 19 19 19 19 19 19 19 19 19 18 18 19 19 19 19 20 20 20
24 23 23 23 23 23 23 23 23 23 23 23 23 24 24 24 24 24 25 25 25 25 25 25 25 25 25 25 25 25 26 26 26 25 25 25 24 24 24 24 23 23 22 21 21 21 21 21 22 22 22 22 22 22 22 22 22 22 21 21 21 21 20 20 19 19 19 19 19 19 19 19 18 18 18 18 18 18 18 18 19 19 19 19 20
24 23 23 23 23 23 23 23 23 23 23 23 23 24 24 24 24 24 24 24 24 25 25 25 25 25 25 25 25 25 25 25 25 25 25 24 24 23 23 22 22 21 21 21 21 21 21 21 21 22 22 22 22 22 22 22 21 21 21 21 20 20 20 19 19 18 18 18 18 18 18 18 17 17 17 17 17 17 18 18 18 18 18 19 19
23 23 24 24 24 23 23 23 23 23 23 23 23 23 24 24 24 24 24 24 24 24 24 25 25 25 25 25 25 25 25 25 25 25 24 24 23 22 22 22 22 22 21 21 21 21 21 20 21 21 22 22 22 21 21 21 21 21 20 20 19 19 19 18 18 18 18 17 17 17 17 17 17 17 17 17 17 17 17 18 18 18 18 18 19
23 23 23 23 23 23 23 23 23 23 23 23 23 24 24 24 24 24 25 25 24 24 24 25 25 25 25 24 24 24 24 24 24 24 24 23 23 22 22 22 22 22 22 22 22 22 21 20 20 21 21 21 21 21 21 21 21 20 20 19 19 18 18 18 18 18 17 17 17 17 17 17 17 17 17 17 17 17 18 18 18 18 18 18 18
23 23 23 23 23 23 23 23 23 23 23 23 23 23 23 23 24 24 24 25 24 24 24 24 24 24 24 24 23 23 23 23 23 23 23 23 22 23 22 22 21 22 22 22 22 22 21 20 20 21 21 21 21 21 21 21 20 20 19 19 18 18 18 18 17 17 17 17 17 17 17 17 17 17 17 18 18 18 18 18 18 18 18 18 18
22 22 23 23 23 23 23 23 23 23 23 23 23 24 24 24 24 24 24 24 23 24 24 24 23 23 23 23 22 22 21 21 22 22 22 22 22 22 22 22 21 21 21 21 21 21 21 20 20 20 19 20 21 21 20 20 20 19 19 18 18 17 17 17 17 17 17 17 16 16 16 16 16 17 17 18 18 18 18 18 18 18 18 18 18
21 22 22 22 23 23 23 23 23 22 21 21 22 23 24 24 23 23 23 23 23 23 23 23 23 23 23 22 21 21 20 21 21 21 21 21 21 22 22 21 21 21 20 20 20 20 19 19 19 18 18 19 19 19 20 20 20 19 18 17 17 17 17 17 17 17 17 16 16 16 16 16 16 16 17 18 18 18 18 18 18 18 18 18 18
20 21 21 22 22 22 22 22 22 22 22 22 21 21 22 23 23 23 23 23 23 22 22 22 22 22 21 20 20 20 20 20 20 20 21 21 21 21 21 21 20 19 19 18 18 18 18 18 18 18 18 18 18 18 19 20 19 18 18 17 17 17 16 17 17 17 17 17 17 17 17 17 17 16 16 17 17 17 18 17 17 16 16 17 17
20 20 21 21 22 22 22 22 22 22 23 23 22 21 21 22 22 22 23 23 22 21 21 21 20 20 20 19 19 19 19 19 20 20 20 20 20 20 20 19 18 18 17 17 17 17 17 17 17 17 17 18 18 18 19 20 19 18 18 18 17 16 16 17 17 17 17 17 17 17 17 17 17 17 17 17 17 17 16 16 16 16 15 15 15
20 20 20 21 21 22 22 22 22 21 21 22 22 22 21 21 21 21 21 21 20 20 21 20 19 19 19 18 18 19 19 18 19 19 19 19 19 19 19 18 17 16 16 16 16 16 17 17 17 17 18 18 18 18 19 19 19 18 18 18 17 16 16 17 17 18 18 17 17 17 17 17 17 17 17 17 16 16 15 15 16 15 15 14 15
19 20 20 20 21 21 21 21 21 20 21 21 21 21 21 20 20 20 20 20 20 20 19 19 18 18 18 18 18 18 18 17 17 18 18 18 18 18 17 16 16 15 15 15 15 15 16 16 17 17 18 18 18 18 18 19 19 18 18 18 17 16 17 18 18 18 18 18 17 17 17 17 17 17 17 17 16 15 15 15 15 15 14 14 14
19 19 20 20 20 20 20 20 20 21 21 21 21 20 20 20 20 20 20 20 19 19 18 18 18 17 16 17 17 16 16 17 17 17 17 17 17 17 16 16 16 16 16 16 16 16 16 16 16 17 17 18 18 18 18 18 18 18 18 18 17 17 18 18 17 18 18 17 17 17 16 16 16 16 16 16 15 15 15 14 14 14 14 14 14
19 19 19 20 20 20 20 20 20 21 21 20 20 20 19 19 20 20 20 19 18 18 17 17 17 16 16 16 16 16 16 16 16 16 16 16 16 17 17 16 16 17 17 17 16 16 16 16 16 16 17 17 18 18 18 18 18 18 18 17 17 17 17 17 17 18 17 17 17 16 16 16 15 15 15 15 15 15 14 14 14 14 14 14 14
19 19 19 19 19 19 19 20 20 20 20 20 19 18 18 18 19 19 18 18 17 17 16 16 16 16 15 15 15 15 15 15 15 16 16 16 16 16 16 16 16 17 17 16 16 16 16 16 16 16 17 17 18 18 18 18 17 17 17 17 17 17 17 17 17 17 17 16 16 15 15 15 15 15 15 15 15 15 15 15 15 15 15 14 14
19 19 19 19 19 19 19 19 20 19 19 19 18 17 17 17 17 17 17 17 16 15 15 16 16 15 14 14 14 15 15 15 15 15 16 16 16 16 16 16 17 17 16 16 16 16 16 16 16 16 17 17 17 17 17 17 17 17 17 17 17 17 17 17 17 16 16 15 15 14 14 14 14 14 14 14 14 15 15 15 15 15 15 14 14
19 19 19 19 19 19 19 18 18 19 18 18 17 16 16 16 15 15 16 16 16 15 14 15 15 14 14 14 14 14 14 14 14 15 15 16 16 16 16 16 17 17 16 16 16 16 16 16 16 16 17 17 17 17 17 17 17 17 17 17 17 17 17 16 16 16 15 15 14 14 14 14 14 14 14 14 14 14 14 14 14 14 14 14 14
18 18 18 18 18 18 18 17 17 17 17 17 16 15 15 15 14 14 15 15 14 14 13 13 13 13 13 14 14 15 15 15 15 15 15 15 16 16 16 16 17 17 16 16 16 16 15 15 16 16 17 17 17 17 17 17 17 17 17 17 17 16 16 16 16 15 15 14 14 14 14 14 14 14 14 14 14 14 14 14 14 14 14 14 14
17 17 17 17 17 17 16 16 15 15 15 15 15 14 14 14 14 14 14 14 14 13 13 13 13 13 14 14 15 15 15 16 16 16 16 16 16 16 16 16 16 17 16 16 16 16 15 15 15 16 17 17 17 17 17 17 17 17 16 16 16 15 15 15 15 15 14 14 14 13 13 13 13 13 13 13 13 13 13 13 13 13 13 13 13
15 15 15 15 15 15 15 15 14 14 14 14 14 14 14 14 14 14 14 14 14 13 13 13 14 14 14 15 15 15 15 16 16 17 17 17 17 17 17 17 17 17 17 17 16 16 15 15 15 16 17 17 16 16 16 16 16 16 15 15 15 15 15 15 14 14 14 14 13 13 13 13 13 13 13 13 13 12 12 12 12 12 12 13 12
14 14 14 14 14 14 14 14 13 14 14 14 14 14 14 14 14 14 14 14 15 15 14 14 15 15 15 15 15 16 16 16 17 17 17 17 17 17 17 17 17 17 17 17 16 15 15 15 16 16 16 16 16 16 15 15 15 15 14 14 14 14 14 14 14 13 13 13 13 13 13 13 13 12 12 12 12 12 12 12 12 12 12 12 12
14 14 14 14 13 13 13 13 13 13 13 14 14 14 15 15 15 15 15 15 15 16 16 15 15 16 16 16 16 17 17 17 17 17 17 17 17 17 17 16 16 16 16 16 16 15 15 15 15 16 16 16 15 15 14 14 14 14 14 14 14 13 13 13 13 13 13 13 12 12 12 12 12 12 12 12 11 11 12 11 11 11 11 11 11
14 13 13 13 13 13 13 13 14 14 14 14 14 14 14 14 15 15 15 15 15 15 15 16 16 16 17 17 17 17 17 18 18 18 18 17 17 17 16 16 16 16 16 16 15 15 15 15 15 15 16 15 15 14 14 14 13 13 13 13 13 13 13 12 12 12 12 12 12 12 12 12 11 11 11 11 11 11 11 11 11 11 11 10 10
14 14 13 13 13 13 13 13 14 14 14 14 14 14 14 13 14 14 14 15 15 15 15 16 16 17 17 17 17 18 18 18 18 18 18 18 17 17 16 16 16 16 16 16 16 15 16 15 15 15 15 15 14 14 14 13 13 13 13 12 12 12 12 11 11 11 11 11 11 11 11 11 11 11 10 10 10 10 10 10 10 10 9 10 9
14 14 14 14 14 13 13 13 13 13 13 13 13 13 13 13 12 13 13 14 15 15 16 16 16 17 17 17 18 18 18 18 18 18 18 18 18 17 17 16 16 16 17 17 16 15 15 15 14 14 14 14 14 13 13 12 12 12 12 12 11 11 11 11 11 11 11 11 11 11 10 10 10 10 9 9 9 9 9 9 9 9 9 9 9
15 15 15 15 15 14 14 14 14 14 14 14 14 14 13 13 13 13 13 14 14 15 15 16 16 17 17 17 17 18 18 18 18 18 18 18 18 18 17 17 17 17 17 17 16 15 15 14 14 14 13 13 13 13 12 12 12 12 11 11 11 10 11 11 11 10 10 10 10 9 9 9 9 9 8 8 8 8 8 8 8 8 8 8 8
15 15 16 16 16 15 15 15 15 15 15 15 14 14 14 14 14 14 13 13 13 13 14 15 16 16 17 17 17 17 17 17 17 17 17 18 18 18 18 17 17 16 16 16 15 14 14 14 13 13 13 13 12 12 12 11 11 11 11 10 10 10 10 10 10 10 9 9 9 8 8 8 8 8 7 7 7 7 7 7 7 8 8 8 8
16 15 16 16 16 15 15 15 15 15 15 15 15 14 14 14 14 13 13 13 13 12 13 13 14 15 16 16 17 17 17 17 17 17 17 17 17 18 17 16 15 14 14 14 14 13 13 13 13 13 12 12 12 12 11 11 11 10 10 10 10 10 10 9 9 9 9 8 8 8 8 8 8 7 7 6 6 6 6 7 7 7 7 7 7
17 16 16 16 16 16 16 16 15 15 15 15 15 15 14 14 14 13 13 13 13 13 12 13 14 15 15 15 16 16 16 17 17 16 16 16 17 17 16 15 14 13 13 12 13 13 13 12 12 12 12 12 11 11 11 10 10 10 10 10 10 9 9 9 8 8 8 8 8 7 7 7 7 6 6 6 6 6 6 6 6 7 7 7 7
17 17 17 17 17 17 16 16 16 16 15 15 15 15 14 14 14 13 13 13 13 13 13 13 14 15 14 14 15 16 16 16 16 16 15 16 16 15 15 14 13 13 12 12 12 12 12 12 12 11 11 11 11 10 10 10 10 9 9 9 9 9 8 8 8 8 8 7 7 6 6 6 5 5 5 5 6 6 6 6 6 6 6 6 7
18 18 17 17 18 17 17 16 16 16 15 15 15 15 14 14 14 13 13 13 13 13 13 14 14 14 14 14 15 15 16 15 15 14 14 14 13 13 13 13 13 12 12 12 12 12 11 11 11 11 10 10 10 10 10 9 9 9 9 9 9 8 8 8 7 7 6 6 6 5 5 5 5 5 5 5 5 5 6 6 6 6 6 6 6
17 17 17 18 18 18 17 17 16 16 15 15 15 15 15 14 14 13 13 13 13 13 14 14 14 14 14 15 15 16 15 14 13 12 12 12 12 12 12 12 12 12 12 11 11 11 11 10 10 10 10 10 10 9 9 9 9 9 8 8 8 7 7 6 6 5 5 5 5 5 5 5 5 5 5 5 5 5 6 6 6 6 6 6 6
17 17 17 17 17 17 17 17 16 16 15 15 15 15 14 14 14 14 14 14 13 13 13 13 13 13 14 14 15 15 14 13 12 12 12 12 11 12 12 11 11 11 11 11 10 10 10 10 10 10 9 9 9 9 8 8 8 8 7 7 6 6 5 5 5 4 4 5 5 5 5 4 4 5 5 5 5 6 6 6 6 6 6 6 6
17 17 17 17 17 17 17 16 15 15 15 15 15 14 14 14 14 14 14 14 13 13 13 12 12 12 13 13 14 14 13 12 11 11 11 11 11 11 11 11 10 10 10 10 10 10 10 9 9 9 8 8 8 8 8 7 7 7 6 6 6 5 5 4 4 4 4 4 4 5 5 5 5 5 5 5 5 6 6 6 6 6 6 6 6
17 18 18 17 17 17 16 15 15 15 14 14 14 14 14 14 14 14 14 13 13 13 12 12 12 12 12 12 12 12 12 11 11 10 10 10 10 10 10 10 10 9 9 9 9 9 9 9 8 8 8 7 7 7 7 7 6 6 6 5 5 5 4 4 4 4 4 4 4 5 5 5 5 5 5 5 5 6 6 6 6 6 6 6 6
17 18 18 18 17 17 16 15 15 14 13 13 13 13 14 14 14 14 14 13 13 12 12 12 11 11 11 11 11 11 11 10 10 10 9 9 9 9 9 9 9 8 8 8 8 8 8 8 8 7 7 7 7 6 6 6 6 5 5 5 5 4 4 4 4 4 4 4 4 5 5 5 5 5 5 5 5 5 5 5 5 5 6 6 6
17 17 17 17 17 16 15 15 14 13 13 13 13 13 13 14 14 13 13 13 12 12 12 11 11 11 11 10 10 10 10 9 9 9 9 9 8 8 8 8 8 8 8 7 7 7 7 7 7 7 6 6 6 6 5 5 5 5 5 5 5 4 4 4 4 4 4 4 4 4 5 5 5 5 4 4 4 4 5 5 5 6 6 6 6
17 17 17 17 16 16 14 14 14 13 13 13 13 13 13 13 13 13 13 12 12 12 11 11 11 11 10 10 9 9 9 8 8 8 8 8 8 7 7 7 7 7 7 6 6 6 6 6 6 6 6 5 5 5 5 5 5 5 5 5 5 4 4 4 4 4 4 4 4 4 4 5 5 5 4 4 4 4 5 5 5 5 6 6 6
17 17 16 16 16 15 14 14 13 13 13 13 13 13 13 13 13 13 12 12 12 11 11 11 10 10 10 9 9 8 8 8 7 7 7 7 7 7 7 6 6 6 6 6 6 5 5 5 5 5 5 5 5 5 5 5 5 5 5 5 5 4 4 4 4 4 4 4 4 4 4 4 5 5 5 5 5 4 5 5 5 5 5 5 5
16 16 16 16 16 15 14 14 14 14 13 13 13 13 13 13 12 12 12 11 11 11 10 10 10 10 9 9 9 8 8 8 7 7 7 7 7 6 6 6 6 6 5 5 5 5 5 5 5 5 5 5 5 5 5 5 5 5 5 5 5 4 4 4 4 4 4 4 4 4 4 4 4 5 5 5 5 4 4 5 5 5 5 5 5
16 16 16 16 16 15 15 15 15 14 14 14 13 13 13 13 12 12 11 11 11 10 10 10 10 9 9 9 8 8 8 8 7 7 7 7 6 6 6 6 5 5 5 5 5 5 5 5 5 5 5 5 5 5 5 5 5 5 5 5 5 4 4 4 4 4 4 4 4 4 4 4 4 4 4 5 5 4 4 5 5 5 5 5 5
16 16 16 16 16 16 15 15 15 15 14 14 13 13 13 12 12 12 11 11 10 10 10 10 9 9 9 8 8 8 7 7 7 7 7 6 6 6 6 5 5 5 5 5 5 5 5 5 5 5 5 5 5 5 5 5 5 5 5 5 5 4 4 4 4 4 4 4 4 4 4 4 4 4 4 5 5 5 5 5 5 5 5 5 5
16 16 16 16 16 15 15 15 15 15 14 14 14 13 13 12 12 11 11 11 10 10 10 9 9 9 8 8 8 8 7 7 7 7 7 6 6 6 6 6 5 5 5 5 5 5 5 5 5 5 5 5 5 5 5 5 5 5 5 5 5 4 4 4 4 4 4 4 4 4 4 4 4 4 4 5 5 5 5 5 5 5 5 5 5
Height
806 809 810 812 814 816 818 820 821 823 825 826 828 828 830 831 831 833 833 834 834 834 835 835 835 835 835 835 835 836 836 837 837 838 838 838 838 839 839 839 839 839 839 840 840 840 841 841 841 841 841 841 841 840 840 840 839 839 839 838 837 837 837 836 836 833 832 832 831 830 830 829 828 827 826 824 823 822 821 820 818 817 816 815 814
804 806 808 810 812 813 815 817 819 821 823 824 825 827 828 829 830 831 832 832 833 833 833 833 833 833 833 834 834 834 835 835 835 835 835 835 836 836 837 837 837 838 838 838 838 839 839 839 839 840 840 840 839 839 839 839 839 838 838 837 837 837 836 835 835 833 831 830 830 829 829 828 827 826 825 824 822 821 820 819 818 817 816 815 814
801 803 805 807 809 810 812 814 816 818 820 821 823 824 826 827 828 829 830 830 831 831 831 831 831 832 832 832 832 832 832 832 833 833 833 833 834 835 835 835 836 836 836 836 837 838 838 838 838 839 839 839 838 839 838 838 838 837 837 837 836 836 835 835 834 833 831 830 829 828 827 827 826 825 824 823 822 820 819 818 817 817 815 814 813
800 801 803 804 806 808 810 812 814 815 817 818 820 822 823 825 826 827 828 828 829 829 829 829 830 830 830 830 830 830 830 830 830 831 831 832 833 833 834 834 835 835 835 835 836 836 837 837 837 838 838 838 838 838 838 837 837 837 836 836 835 835 835 834 834 833 832 830 829 828 827 826 825 824 823 822 820 820 819 818 816 815 814 813 812
798 799 801 802 804 806 807 809 811 812 814 815 817 819 820 822 823 824 825 826 826 826 827 827 828 828 828 828 828 828 828 829 829 829 830 831 831 832 832 833 833 834 834 834 835 835 836 836 837 837 837 837 837 837 837 837 836 836 836 835 835 835 834 833 833 832 832 830 829 827 827 826 824 824 823 821 819 818 817 817 816 814 813 812 811
796 797 798 800 801 803 805 806 808 809 811 812 814 815 817 819 820 821 822 823 824 824 824 825 826 826 826 826 827 827 827 827 827 827 828 829 830 830 830 831 832 832 833 833 833 834 834 835 835 836 836 836 836 836 836 836 835 835 835 835 834 834 833 833 832 831 831 830 829 827 826 825 824 823 822 821 820 817 816 815 814 813 812 811 810
793 794 796 797 799 800 802 803 805 806 808 809 811 812 814 815 817 818 820 821 821 822 822 823 824 824 824 825 825 825 825 825 826 826 827 827 828 828 829 829 830 830 831 832 832 833 833 834 834 834 834 834 834 834 834 834 834 834 834 834 834 833 833 832 831 831 830 829 828 827 826 825 824 823 822 821 820 818 817 815 813 811 811 810 809
790 792 794 795 796 797 798 800 802 803 805 807 808 810 811 812 814 815 817 818 819 819 820 821 822 822 823 823 823 823 824 824 824 824 825 826 826 827 827 828 828 829 829 830 830 831 831 832 833 833 833 833 833 833 833 833 833 834 834 834 833 833 832 831 831 830 829 828 828 827 826 825 824 823 822 821 820 819 817 816 814 811 810 809 808
786 789 791 792 793 794 796 797 799 801 803 805 806 807 808 810 811 813 814 815 816 817 819 820 820 820 821 821 822 822 822 822 822 823 824 824 825 826 826 827 827 828 829 829 831 832 833 833 833 832 832 832 832 832 832 832 833 833 833 833 833 832 832 831 830 830 829 829 828 827 826 825 824 822 821 820 820 818 817 816 814 811 810 808 807
782 784 787 788 790 791 793 795 796 799 800 802 804 805 806 807 809 810 812 813 814 815 817 818 818 819 819 819 820 820 821 821 821 822 822 823 824 825 825 826 827 829 830 830 831 833 833 832 833 833 832 831 831 831 831 832 832 832 832 832 832 832 831 831 831 830 830 829 828 827 826 825 824 822 821 820 819 818 816 815 813 811 809 807 805
780 781 782 784 787 789 791 792 794 796 798 800 801 803 805 806 807 809 810 811 812 813 814 815 816 817 817 818 818 819 819 819 820 820 821 822 822 823 824 825 826 827 829 830 832 832 831 830 830 831 831 830 830 831 831 831 831 831 831 831 831 831 831 831 831 830 830 829 829 828 827 826 824 823 822 820 819 817 816 814 813 811 809 808 806
778 778 779 781 783 786 788 790 792 793 795 797 799 801 803 805 806 807 808 809 810 811 812 813 814 815 816 816 817 817 817 817 818 818 819 819 820 821 822 822 822 824 826 828 829 829 828 829 829 828 828 828 828 829 830 830 830 830 831 831 831 831 831 831 831 830 830 830 829 829 828 827 825 823 822 820 819 818 816 815 814 812 811 810 808
775 776 777 779 780 781 784 787 789 791 792 795 797 799 801 803 804 805 805 807 808 809 810 811 812 813 814 814 815 815 815 815 816 817 817 818 819 819 820 820 821 822 823 824 825 825 826 828 828 827 826 826 827 828 828 829 829 830 830 830 831 831 831 831 831 831 831 831 830 830 829 828 826 824 822 820 819 818 817 815 814 813 812 810 809
772 773 774 776 777 778 781 784 786 788 790 792 794 797 799 800 802 803 804 805 806 807 809 809 810 811 811 812 813 813 813 814 814 815 816 816 817 817 818 819 820 821 821 822 823 823 824 825 825 825 825 825 825 826 827 827 828 829 830 831 831 832 832 832 832 832 832 831 831 831 830 828 827 825 823 821 820 819 817 816 814 813 812 811 810
769 770 771 773 774 776 778 780 783 787 789 791 792 794 796 798 799 801 802 803 804 805 806 807 808 809 810 810 811 812 812 813 813 814 814 815 815 815 816 817 818 819 819 820 821 822 822 824 824 824 823 823 824 825 826 827 827 828 830 831 832 832 833 833 833 833 833 833 832 832 831 830 828 826 824 822 821 820 819 817 815 814 812 811 811
766 767 768 769 771 774 776 778 780 783 787 791 793 793 793 795 797 799 800 801 802 803 804 805 806 807 808 809 809 811 812 812 813 813 813 813 814 814 815 816 816 817 818 819 820 821 822 824 824 824 824 824 824 825 825 826 827 829 830 831 832 833 834 834 835 834 834 834 833 833 832 831 829 827 826 824 822 821 820 817 815 814 813 812 811
764 765 765 766 768 771 772 774 775 777 781 787 792 794 793 793 794 796 797 798 799 801 802 804 805 806 807 808 809 810 811 812 812 812 812 813 813 814 815 815 815 816 816 818 819 820 822 824 825 826 825 824 824 825 826 826 827 829 831 832 833 834 835 836 836 836 836 835 834 833 832 831 830 828 827 825 824 822 819 817 817 816 815 814 813
762 763 763 764 766 767 769 770 772 774 776 780 785 790 792 792 792 793 794 795 797 799 801 803 805 806 807 808 810 810 811 811 811 811 811 812 813 814 814 815 815 816 817 818 819 819 822 824 826 826 826 826 828 828 826 827 829 830 832 833 834 835 837 838 838 837 837 836 835 834 833 832 830 829 828 827 825 823 820 820 821 820 818 817 816
759 760 761 763 764 764 765 766 770 773 776 778 782 786 788 789 790 790 792 793 795 798 800 802 804 806 808 809 810 810 810 811 811 810 810 811 812 813 814 814 815 817 818 819 820 821 822 824 826 826 825 828 833 832 828 828 830 832 833 833 834 836 838 839 839 838 838 837 836 835 834 833 832 831 830 828 827 825 824 824 823 821 819 820 819
756 757 758 759 760 761 762 764 766 769 772 775 779 783 786 787 788 789 791 793 795 798 799 801 803 806 808 809 810 810 810 811 811 811 811 811 811 812 814 815 816 817 818 820 822 824 826 827 827 827 826 828 833 834 832 830 831 833 834 834 834 837 838 839 839 839 838 838 837 836 835 834 833 832 831 830 828 827 826 825 824 823 822 822 821
753 755 755 756 757 759 760 762 763 764 767 770 773 777 782 784 786 788 790 792 795 797 798 800 802 805 807 809 809 810 811 811 812 812 812 812 812 813 814 816 818 819 820 822 825 827 829 830 830 829 829 830 832 834 833 832 832 833 834 835 836 838 839 840 840 839 839 838 838 837 836 835 834 833 832 831 830 829 828 827 826 825 824 824 823
750 752 753 753 754 756 758 760 761 762 764 767 770 773 775 779 783 785 788 790 793 796 798 799 801 804 806 808 809 810 811 812 813 814 814 813 813 814 815 817 819 820 821 822 825 827 829 832 833 832 832 832 832 833 833 834 834 834 836 837 838 840 840 840 840 840 839 839 838 837 837 837 836 835 834 834 833 832 831 830 829 828 827 826 825
746 748 750 751 753 754 756 758 760 761 763 765 768 770 771 774 779 782 785 788 791 794 798 800 801 803 806 808 809 810 811 812 813 815 815 815 815 815 816 817 819 820 820 821 824 826 828 831 832 833 833 834 833 833 833 834 835 836 837 839 840 841 841 841 840 840 840 839 839 839 839 839 838 838 837 836 836 835 833 832 831 830 828 828 827
743 745 747 749 751 752 754 756 758 760 762 763 765 768 770 772 775 779 783 785 788 792 797 799 801 803 806 808 810 811 812 813 815 816 817 817 817 817 817 818 819 820 821 823 825 827 830 832 832 832 833 834 834 834 834 835 836 837 839 840 841 842 842 842 841 841 841 840 840 841 841 841 841 840 839 839 838 837 835 834 833 831 830 829 828
741 743 745 747 748 750 753 755 755 757 759 761 763 767 769 771 774 778 782 783 785 791 797 800 802 804 807 810 812 813 814 815 816 818 818 818 818 818 818 819 820 821 823 825 827 829 831 832 833 834 834 834 835 835 836 837 837 839 840 842 843 843 843 843 843 842 842 842 842 843 843 843 843 842 842 841 839 837 836 835 833 832 831 830 829
741 742 744 746 747 748 750 754 757 758 760 762 764 767 769 771 774 778 780 783 787 792 797 801 804 807 810 812 813 814 816 817 818 818 818 818 818 819 819 820 822 823 825 827 829 830 832 833 834 835 836 836 836 836 837 838 839 840 842 843 844 844 844 844 844 843 844 844 844 845 845 845 845 844 843 841 839 837 836 835 834 833 832 831 829
743 744 746 748 749 749 749 751 755 759 763 764 765 770 773 775 778 781 782 786 791 796 800 803 806 809 811 812 814 816 817 818 819 819 818 818 818 818 819 821 823 824 826 828 830 832 834 835 836 836 836 837 837 838 839 840 841 842 843 844 845 845 846 845 845 845 845 846 846 846 846 846 845 844 842 841 839 839 838 837 835 834 833 831 830
747 748 750 751 753 753 753 752 753 759 764 766 767 772 776 778 782 786 788 789 793 799 804 806 808 810 811 813 816 817 818 818 818 817 817 817 818 818 819 821 822 824 826 828 831 833 835 836 837 837 837 838 839 840 841 843 843 844 845 846 846 847 847 847 846 846 847 847 847 847 847 846 845 844 843 842 841 840 839 838 837 835 834 832 831
751 753 754 756 757 758 758 758 758 760 764 768 771 776 780 783 788 791 793 794 797 801 805 807 809 812 813 815 817 817 817 817 817 817 817 817 817 818 819 820 821 823 825 827 830 833 835 837 838 838 839 839 840 842 844 845 846 846 846 847 847 847 847 847 847 847 848 848 847 847 847 846 846 845 844 843 842 841 840 838 837 836 834 833 832
757 758 759 762 763 763 763 765 765 766 769 773 776 780 784 790 794 795 796 799 803 805 806 809 812 814 815 816 818 818 817 817 817 817 817 817 818 818 819 820 821 822 824 827 830 833 835 837 839 840 841 841 843 844 846 847 847 847 847 848 848 848 848 848 849 849 849 849 849 848 848 847 846 845 844 843 842 841 840 839 838 836 835 833 832
762 764 765 767 768 768 768 771 773 774 777 780 781 783 787 792 797 799 801 803 806 808 810 813 816 817 817 818 819 819 819 818 818 818 818 818 819 819 820 821 822 824 825 828 830 834 836 838 840 841 842 843 845 846 847 847 848 848 848 849 849 850 850 850 851 851 850 850 850 849 848 847 846 846 845 844 843 842 841 840 838 837 836 834 834
767 769 771 772 773 774 775 777 779 780 782 784 785 787 789 791 797 803 807 808 810 813 815 817 819 819 820 820 820 820 820 820 819 819 819 820 820 821 822 824 825 827 828 829 831 835 837 839 841 843 844 845 846 847 848 848 849 849 850 850 851 851 852 852 852 852 851 851 850 849 848 848 847 846 845 844 843 842 841 840 839 838 836 836 835
772 774 776 777 778 780 781 782 784 786 787 788 790 792 792 793 798 805 810 813 815 816 818 819 821 821 822 822 821 821 821 821 821 821 822 822 823 824 825 826 828 829 830 830 833 836 838 840 842 844 845 846 847 848 849 849 850 851 851 851 852 853 853 853 853 852 852 851 850 850 849 848 847 846 846 845 844 843 842 840 839 838 837 836 835
778 779 780 781 782 785 786 787 789 791 792 794 795 796 798 801 804 807 812 815 817 818 819 821 822 823 823 823 823 823 823 823 824 824 825 826 827 827 827 828 830 831 832 833 835 837 840 841 843 845 846 847 848 849 850 851 851 852 852 853 854 854 854 854 853 853 852 852 851 850 849 848 847 846 845 845 844 843 842 841 840 839 838 837 836
783 784 785 785 787 789 791 792 793 795 797 798 800 801 804 807 810 812 814 816 818 819 821 822 823 824 825 825 825 826 826 826 827 828 828 829 830 830 830 830 831 833 834 835 837 839 841 843 845 846 848 849 850 851 851 852 853 853 854 854 855 855 855 854 854 853 853 852 851 850 849 848 847 846 846 845 844 844 843 842 841 840 839 838 837
787 788 789 790 791 793 794 796 797 799 801 802 804 806 809 811 813 816 817 818 819 821 823 824 825 826 826 827 827 828 828 829 829 830 831 832 832 832 831 832 834 835 837 838 840 841 843 845 846 848 849 850 851 852 853 854 855 855 855 856 856 856 856 855 854 854 853 852 851 850 849 848 848 847 847 846 845 845 844 843 842 841 840 839 838
791 792 793 794 796 797 798 800 801 803 805 806 808 810 812 814 816 817 819 821 822 823 825 826 826 827 827 829 829 830 830 831 831 832 833 833 834 833 834 835 836 837 839 840 842 843 845 847 848 849 851 852 853 854 855 856 856 857 857 857 857 856 856 855 855 854 853 852 852 851 850 849 849 848 848 847 846 845 845 844 843 842 841 840 838
795 796 797 798 799 800 802 803 805 807 808 810 811 813 814 816 818 819 821 823 824 825 827 827 827 828 829 831 832 832 832 833 833 834 835 835 835 836 836 837 838 839 841 843 844 845 846 848 850 851 852 853 855 856 856 857 858 858 858 858 857 857 857 856 855 855 854 853 852 852 851 850 850 849 848 848 847 846 845 844 843 842 841 840 838
798 799 801 802 802 803 805 806 808 810 811 813 814 815 816 818 819 821 823 824 826 827 828 829 830 831 832 833 834 834 834 835 836 836 837 838 838 839 839 840 841 842 843 844 846 847 848 850 851 853 854 855 856 857 857 858 858 859 859 858 858 858 857 857 856 855 854 854 853 852 852 851 850 850 849 849 848 847 846 844 843 842 841 840 839
800 802 803 804 805 807 808 809 810 812 813 815 816 817 818 819 821 822 824 826 827 829 830 831 832 834 835 836 836 836 836 837 838 839 840 841 841 842 842 842 843 844 845 847 848 849 850 851 853 854 855 856 857 858 858 859 859 860 859 859 859 858 858 857 857 856 855 855 854 853 853 852 851 851 850 850 849 847 846 845 844 843 842 841 839
803 804 805 806 807 808 809 811 812 813 815 816 817 818 820 821 823 824 826 827 829 831 832 833 835 836 837 838 838 838 839 840 841 842 842 843 844 844 845 845 846 847 848 849 850 851 852 853 854 855 856 857 858 859 860 860 860 860 860 860 860 859 859 858 858 857 856 856 855 855 854 853 853 852 851 850 849 848 847 846 845 843 842 841 840
806 806 807 808 809 810 811 812 813 815 816 818 819 820 822 823 824 826 828 829 831 832 833 835 837 838 840 841 841 841 841 842 843 844 845 845 846 847 847 848 849 850 850 851 852 853 854 855 856 857 858 859 860 860 861 861 861 861 861 861 860 860 859 859 858 858 857 857 857 856 855 855 854 853 852 851 850 848 847 846 845 844 843 841 840
808 808 809 810 811 812 813 814 815 816 818 819 820 822 823 825 826 828 829 831 833 834 835 837 839 840 842 843 843 843 843 844 845 846 847 848 849 850 850 851 852 852 853 854 854 855 856 856 857 858 859 860 861 861 862 862 862 863 862 862 861 860 860 859 859 859 858 858 858 857 856 855 854 853 852 851 850 849 848 847 846 845 843 842 841
809 810 811 812 813 814 815 815 817 818 819 821 822 824 825 826 828 830 831 833 835 836 837 839 841 842 844 845 845 846 846 847 848 849 850 851 852 852 853 854 854 854 855 855 856 857 857 857 858 859 860 861 862 863 863 864 864 863 863 862 861 861 860 860 860 859 859 859 858 858 857 856 855 854 853 852 851 850 849 848 847 845 844 843 841
810 811 812 814 814 816 817 818 819 820 822 823 824 826 827 828 830 832 834 835 836 838 840 841 843 844 846 847 848 848 849 850 851 852 853 853 854 854 855 855 855 856 856 857 858 858 859 859 860 861 862 863 864 864 865 865 864 863 863 862 862 861 861 861 860 860 860 860 859 858 858 857 856 855 854 853 852 851 850 849 847 846 845 843 842
811 811 813 815 816 817 819 820 821 823 824 825 826 828 830 831 833 835 836 838 839 841 843 844 845 847 848 849 850 851 852 853 854 854 855 855 855 856 856 856 856 857 857 858 859 860 860 861 862 862 863 864 865 865 865 865 864 864 863 863 862 862 862 861 861 860 860 860 859 859 858 858 857 856 855 854 853 852 851 850 848 847 846 844 843
811 812 813 815 817 818 820 822 824 826 827 829 830 831 833 834 836 838 840 841 843 844 845 847 848 849 850 851 852 853 853 854 855 855 856 856 856 856 857 857 857 858 859 859 860 861 862 863 863 864 865 866 866 866 866 865 865 864 864 864 863 863 862 862 861 860 860 860 860 860 859 859 858 857 856 854 853 852 851 850 849 848 846 845 843
812 813 814 816 818 820 822 824 826 828 830 831 832 834 835 837 838 840 842 844 845 846 847 848 849 849 850 851 852 853 854 854 855 855 856 856 857 857 858 858 859 859 860 861 862 863 864 865 865 866 866 867 867 866 866 866 865 865 865 864 864 863 863 862 862 861 861 861 861 860 860 859 858 857 856 855 854 853 852 851 849 848 847 845 844
813 814 815 817 819 821 823 825 827 829 831 833 834 835 836 838 840 841 843 844 845 846 847 848 848 849 850 851 852 853 854 854 855 856 857 857 858 859 859 860 861 861 862 863 864 865 865 866 867 867 867 867 867 867 866 866 866 866 865 865 865 864 864 863 863 862 862 862 861 861 860 859 859 858 856 855 854 853 852 851 850 849 847 846 844
814 814 816 818 820 822 824 826 828 829 831 833 834 836 837 839 840 842 843 844 845 846 847 847 848 849 850 851 852 854 854 855 856 857 858 859 859 860 861 862 862 863 864 865 865 866 867 867 867 867 868 867 867 867 867 866 866 866 866 866 866 865 865 864 864 863 863 862 862 861 860 860 859 858 857 856 855 853 853 852 850 849 848 846 845
815 816 817 819 821 823 825 826 828 830 831 833 834 836 838 839 841 842 843 844 845 846 847 848 849 850 851 852 854 855 856 857 858 858 859 860 860 861 862 863 864 864 865 866 866 867 867 867 867 867 867 867 867 867 867 867 867 866 866 866 866 866 866 865 865 864 863 862 862 861 860 859 859 858 857 856 855 854 853 852 851 849 848 847 845
Wind_Speed
32 32 32 32 32 31 31 30 29 28 27 26 24 22 20 20 20 19 18 17 17 16 17 17 17 18 17 18 18 18 18 18 17 17 17 17 18 17 16 15 14 13 12 11 11 10 10 10 11 10 10 11 11 11 10 8 7 7 7 7 7 6 6 6 5 8 13 14 14 14 14 15 16 17 18 19 18 17 16 15 14 13 14 14 13
32 33 32 32 32 33 32 32 31 30 29 28 27 25 22 20 20 20 19 19 18 18 18 18 19 20 19 19 19 18 19 19 18 19 19 19 19 18 17 16 16 15 13 13 12 12 12 12 13 12 11 12 11 9 9 8 7 7 7 6 7 6 6 6 6 6 11 15 16 15 15 16 18 19 20 20 19 19 18 17 14 13 13 13 12
33 33 33 32 33 33 32 32 31 30 30 29 29 28 26 22 21 21 21 20 20 20 20 20 20 20 20 19 19 19 20 20 20 20 20 21 19 18 17 17 16 16 15 14 14 14 14 13 13 12 11 10 10 8 8 8 7 6 6 5 6 6 7 8 7 6 10 14 16 17 17 19 20 20 21 20 19 19 19 18 16 14 13 12 12
31 32 32 33 33 32 31 31 30 30 30 30 30 30 29 26 24 23 22 22 21 22 23 23 22 21 21 21 20 20 21 21 21 20 21 21 19 18 17 17 16 16 16 15 15 15 15 14 12 10 9 9 9 7 6 5 5 5 5 5 6 7 8 10 9 8 9 12 15 17 18 19 20 20 19 19 19 19 18 17 17 16 14 13 12
30 31 32 32 32 31 31 31 30 30 30 30 30 30 30 29 27 26 25 24 24 24 25 25 24 24 24 23 22 21 20 20 20 21 21 20 19 18 17 17 16 16 17 17 16 15 15 13 12 9 8 8 7 5 4 4 5 6 6 7 7 8 10 11 11 10 9 10 13 16 16 16 17 17 16 18 20 20 18 17 17 17 17 16 15
30 30 31 31 31 31 31 31 31 31 31 31 30 30 31 31 30 29 28 26 26 26 26 26 26 26 26 24 23 22 21 20 20 20 20 20 19 18 17 16 16 17 18 17 15 15 14 13 12 9 7 6 5 4 5 5 5 6 6 7 8 9 10 10 10 10 9 9 10 13 14 15 16 17 17 18 18 18 19 19 18 18 20 20 20
29 30 30 30 31 31 32 32 32 32 32 32 32 31 31 31 31 31 29 28 27 27 26 26 26 26 26 25 24 23 21 20 20 19 19 19 18 18 17 16 17 17 17 16 15 15 14 12 11 8 6 6 5 5 5 5 4 4 5 6 7 8 9 10 11 10 9 10 10 12 14 16 16 17 17 17 16 15 17 19 19 21 23 23 23
29 29 29 30 31 32 33 33 33 33 33 32 32 31 31 31 31 31 30 28 27 27 27 26 26 26 26 26 25 23 22 21 20 19 18 18 18 17 17 17 17 16 16 15 16 15 13 12 10 7 5 5 5 4 4 3 2 3 4 6 7 9 9 10 10 9 9 10 10 12 14 14 15 16 17 18 17 17 18 19 21 23 25 25 24
29 29 28 30 32 33 33 33 32 32 32 31 31 31 31 31 31 30 29 29 28 28 26 26 26 26 26 26 25 23 22 21 20 19 18 17 17 16 16 17 17 16 14 13 12 12 12 9 6 5 4 3 2 2 2 2 2 3 4 6 7 8 9 9 8 8 8 9 9 11 12 11 14 18 18 17 17 18 20 20 21 22 23 24 21
29 29 29 31 32 32 32 32 31 31 31 31 31 31 31 31 30 30 29 29 29 28 27 26 26 26 26 25 24 23 22 21 20 19 18 17 15 16 16 16 15 13 12 11 10 10 9 7 4 4 5 5 4 3 2 1 2 2 4 6 6 7 7 7 7 7 7 8 8 10 10 9 13 16 15 15 16 18 19 19 20 21 21 20 18
29 30 31 33 32 31 31 31 30 30 30 31 31 31 31 30 30 29 29 29 29 28 28 28 27 26 25 25 24 23 22 21 20 19 18 16 15 15 14 13 12 12 12 11 11 10 10 8 8 8 8 7 6 4 3 1 1 1 3 4 4 5 6 6 7 7 7 7 7 8 9 10 13 14 13 13 15 16 16 16 17 18 18 16 14
29 30 31 32 32 31 31 30 30 30 30 31 31 31 30 30 29 29 28 28 28 27 27 28 27 26 25 24 24 22 22 21 20 19 18 16 15 14 12 12 14 13 12 11 11 12 12 9 11 12 11 10 8 6 4 2 1 1 2 3 5 6 7 7 7 8 8 7 7 9 9 10 12 13 12 13 14 14 14 14 16 17 16 14 13
28 30 31 31 32 32 31 30 30 30 30 30 30 30 29 29 29 29 29 28 27 26 26 26 26 25 24 23 22 21 20 20 19 18 17 15 14 14 14 14 14 13 13 14 15 16 15 13 13 13 11 10 8 6 5 4 4 4 4 6 7 8 9 9 9 10 10 10 10 11 11 10 12 13 13 13 13 13 14 16 16 15 14 14 14
27 29 30 31 31 31 31 30 30 31 31 31 29 28 28 29 29 29 28 27 26 24 24 24 24 23 22 21 20 19 18 17 17 16 15 14 13 14 14 13 12 13 15 15 14 14 15 16 16 15 13 11 8 7 6 7 8 8 9 10 11 12 12 12 13 13 13 14 14 14 15 16 17 18 16 12 11 12 14 15 14 12 12 13 13
27 28 29 30 31 30 30 30 29 28 27 27 29 30 29 28 28 27 25 23 22 22 22 22 21 21 20 19 18 16 14 14 14 14 14 13 13 14 13 12 12 12 12 11 11 13 16 17 15 13 12 11 9 8 9 10 11 12 14 15 16 16 16 16 16 15 15 16 16 17 20 22 24 24 23 18 15 15 14 15 15 14 13 14 16
27 27 28 29 29 29 29 28 27 22 16 14 19 25 28 28 26 24 21 19 19 19 19 18 18 19 18 17 15 12 10 10 10 11 12 11 12 13 13 12 11 10 10 10 11 13 14 15 13 9 9 11 11 11 12 13 15 16 18 19 19 20 20 19 17 17 17 18 18 19 20 21 22 25 25 24 23 22 22 23 24 23 21 17 16
25 26 28 28 27 27 28 28 28 26 22 18 17 20 23 25 24 23 21 19 18 17 16 16 16 17 16 13 11 9 7 7 8 8 9 8 8 9 10 10 10 10 10 10 11 12 11 9 9 10 12 14 15 15 16 16 18 20 21 21 22 22 21 20 19 19 19 19 19 19 19 19 21 22 23 24 24 25 28 29 26 24 21 17 13
24 25 26 27 27 28 29 29 28 28 29 30 26 21 18 19 21 22 22 21 19 18 17 16 14 12 11 9 8 7 5 4 5 6 6 5 4 6 8 9 9 10 11 12 12 13 12 11 12 16 19 19 18 19 19 19 21 21 21 22 24 22 20 20 20 20 20 20 20 21 21 21 21 22 22 23 24 26 28 26 23 22 20 17 14
23 24 24 25 26 29 30 30 28 25 25 27 27 23 19 19 21 21 21 21 20 20 18 16 14 12 10 9 7 6 4 2 1 2 2 1 2 7 11 13 15 17 17 18 18 18 19 21 22 24 24 21 18 19 21 21 21 20 20 22 23 21 19 19 20 21 21 22 23 23 24 23 23 23 23 22 23 25 26 24 23 23 20 16 16
21 23 23 24 24 27 29 28 26 25 26 26 25 22 20 20 21 21 21 21 21 20 19 17 16 14 12 10 9 6 5 6 6 5 4 4 5 11 17 20 22 23 22 22 22 22 23 24 25 24 24 22 19 19 21 22 21 20 19 22 23 20 19 20 20 20 21 22 22 23 24 24 24 24 23 23 23 23 24 24 22 20 17 15 17
21 22 23 24 24 25 26 26 26 27 28 28 27 25 23 23 24 24 23 22 22 21 20 18 17 16 13 11 10 8 7 8 8 8 9 11 11 14 19 22 23 25 27 25 23 21 20 19 20 22 22 22 21 20 20 20 20 20 20 22 22 20 19 20 19 19 20 21 22 23 24 24 24 24 24 25 24 22 22 23 22 20 19 17 16
21 21 22 24 25 25 25 26 28 29 29 29 30 29 28 29 29 28 27 26 24 22 20 19 18 17 14 11 10 9 8 7 9 10 13 17 18 19 21 21 20 22 26 26 23 21 19 16 16 17 19 20 20 20 20 19 20 20 20 21 20 19 18 19 19 19 21 22 23 25 25 25 25 25 25 25 24 23 21 21 21 21 21 20 17
21 22 23 24 26 27 27 28 29 30 32 34 33 32 33 35 34 32 31 29 27 25 22 20 19 17 15 13 10 10 9 9 10 13 16 20 21 22 23 23 22 24 27 25 21 20 19 17 15 15 16 18 19 20 20 20 20 20 20 19 18 17 18 19 21 23 24 25 26 26 26 27 27 27 26 25 24 23 22 20 20 20 19 20 19
21 22 24 26 26 27 29 31 33 33 34 35 35 34 36 37 35 34 33 32 30 28 24 22 20 18 17 16 14 13 13 13 13 15 17 19 21 22 23 23 24 26 25 22 19 18 17 16 16 17 17 19 20 20 21 21 21 20 19 18 17 17 19 21 24 26 27 27 26 26 25 26 26 26 26 26 25 24 24 23 22 21 20 20 21
22 22 24 26 27 28 27 27 32 36 36 35 35 36 36 36 34 33 33 33 32 29 25 23 22 22 20 19 17 16 16 16 16 16 16 17 19 20 20 20 22 24 22 18 17 17 15 16 18 19 19 20 21 22 22 21 20 19 17 17 17 18 20 22 24 25 26 26 25 24 23 23 24 24 24 24 25 25 25 25 24 24 22 21 22
18 20 22 23 25 28 27 23 24 29 32 32 32 33 34 35 34 33 33 32 30 28 25 23 22 21 20 19 18 17 16 17 17 16 16 17 18 18 18 18 20 20 16 13 12 14 17 20 21 21 21 21 22 22 22 20 19 18 17 18 19 19 20 22 23 24 25 24 23 22 21 21 21 22 22 24 25 26 25 25 25 24 23 22 22
12 13 14 15 18 24 29 30 29 28 27 29 31 31 31 33 32 31 31 30 27 24 23 22 20 19 18 17 16 15 14 14 14 14 15 16 17 17 17 17 17 17 15 12 12 14 19 22 22 22 23 23 22 22 21 19 18 18 19 19 20 20 21 21 22 22 22 21 20 19 19 19 20 22 23 24 24 24 23 23 23 23 22 22 22
19 21 20 20 19 19 23 29 34 33 31 31 33 33 31 31 30 28 28 30 29 25 21 20 20 19 18 16 14 13 12 12 12 12 12 12 12 12 12 13 14 15 15 14 14 16 20 22 22 23 24 24 23 22 20 19 19 20 20 19 20 20 20 20 20 20 19 18 18 18 18 19 21 21 22 22 22 22 21 21 21 21 20 21 21
24 26 27 26 26 27 28 30 34 36 36 36 36 34 32 31 29 26 26 28 28 26 24 22 21 19 18 17 15 14 14 13 11 10 9 8 8 8 8 9 10 12 13 16 19 23 23 23 23 24 24 24 23 21 20 20 20 20 19 19 18 18 18 18 19 18 17 17 17 18 18 18 19 19 20 20 20 20 19 19 19 19 19 20 19
28 28 28 28 27 30 33 33 35 37 37 37 37 36 33 30 28 26 26 26 25 24 24 22 20 18 18 17 16 15 15 14 12 11 10 9 9 9 10 11 12 15 19 23 26 26 24 23 23 23 23 22 22 21 20 20 20 19 18 17 17 17 17 17 17 16 16 16 16 16 16 17 18 18 19 19 19 18 18 17 17 17 18 18 17
27 26 27 28 28 30 33 33 34 36 35 35 37 38 37 33 30 28 28 27 25 23 22 21 19 19 19 19 17 17 16 16 16 15 15 15 15 15 16 16 19 23 27 29 27 25 24 24 23 22 22 21 20 20 20 19 18 18 17 17 16 16 15 15 14 14 14 15 15 15 16 17 17 17 17 17 16 16 16 16 15 16 17 16 13
28 27 27 28 29 30 30 31 32 32 33 34 36 37 39 38 34 30 27 26 25 23 22 21 20 20 20 19 19 19 18 19 19 19 19 19 18 18 19 20 22 25 27 27 27 25 25 24 22 20 21 20 19 19 18 17 16 16 16 16 16 15 15 14 13 13 14 14 15 15 15 14 14 14 14 13 14 14 15 15 15 15 15 13 12
28 27 27 28 28 27 27 28 28 29 30 31 31 32 34 35 34 31 27 25 24 24 24 23 23 22 22 21 20 19 19 19 20 20 20 20 19 20 20 22 23 23 24 26 27 25 23 23 21 20 20 19 18 17 16 16 16 16 16 17 16 15 14 13 12 13 14 14 13 13 13 12 12 12 12 13 13 14 14 14 15 14 13 12 12
28 28 28 28 28 26 26 27 28 28 29 29 29 30 30 30 30 30 27 26 25 26 26 26 24 23 22 21 20 19 19 18 19 20 19 19 20 20 21 22 23 22 23 26 27 24 23 22 21 19 19 18 17 16 16 16 16 16 16 16 15 14 12 12 12 13 13 13 13 13 13 12 12 13 13 13 14 14 13 14 14 12 12 11 11
23 24 25 27 27 26 26 27 27 27 28 28 29 29 27 26 26 27 26 27 28 28 28 27 25 23 22 21 20 19 18 18 18 18 18 18 18 19 21 22 23 23 23 24 24 23 22 21 19 18 18 17 16 16 16 16 16 15 15 15 13 13 12 12 13 13 13 14 14 14 14 14 14 13 13 13 14 13 12 13 13 11 11 11 11
20 21 22 24 25 25 25 25 26 27 27 27 27 26 25 25 26 27 29 31 32 30 29 29 27 25 23 21 20 18 17 17 16 16 16 16 15 16 20 23 23 23 23 22 22 21 21 19 18 17 17 16 16 16 16 16 15 15 14 13 13 13 13 13 14 14 14 15 15 15 15 15 13 12 11 11 13 12 10 11 12 11 11 11 10
21 22 23 23 24 25 25 26 26 27 27 27 27 27 27 27 28 29 30 30 30 27 26 25 26 25 24 22 19 18 17 16 15 16 16 15 14 15 20 22 23 23 23 22 21 21 20 19 18 18 18 18 17 17 16 16 15 14 13 12 12 13 13 13 14 14 15 15 15 14 14 13 11 10 8 8 11 12 11 11 12 11 11 12 11
21 22 23 23 24 25 26 26 25 26 26 27 27 28 27 26 27 28 28 27 26 24 23 23 25 25 23 21 19 18 17 16 16 16 17 16 16 19 21 22 22 23 23 22 22 22 22 21 20 20 20 19 18 17 16 15 14 13 12 12 13 13 13 13 13 14 14 14 14 13 13 11 10 9 8 7 10 12 12 12 12 11 12 13 12
19 20 20 20 22 24 24 24 24 25 26 26 27 27 27 27 27 27 26 25 25 24 23 24 23 22 20 18 17 15 16 18 19 20 20 20 20 20 21 21 22 23 23 22 22 22 22 22 21 20 19 18 17 15 14 13 12 12 12 12 12 12 12 13 13 14 14 14 14 13 12 11 10 10 9 8 9 10 11 13 13 12 11 12 12
17 17 17 17 19 21 22 23 23 24 25 26 26 27 27 27 26 26 26 26 25 24 23 22 21 18 17 16 13 13 16 20 21 21 21 21 21 21 21 22 22 22 22 22 22 21 21 21 19 18 17 15 14 13 12 11 11 11 11 11 11 12 12 13 13 14 14 13 13 13 12 11 10 10 9 9 10 11 11 13 13 13 12 12 11
17 17 16 16 17 18 19 20 21 23 25 26 26 26 27 26 26 26 26 26 26 25 24 23 21 18 16 15 12 12 16 20 21 20 21 21 21 21 21 21 21 21 21 20 20 19 19 18 16 15 14 13 12 11 11 10 10 11 11 11 12 12 12 13 13 14 14 13 12 12 12 10 10 9 9 9 11 12 12 12 13 13 13 12 12
16 17 17 17 17 18 19 19 20 22 24 25 25 26 26 26 27 27 27 27 27 26 25 24 22 19 17 15 13 13 17 20 21 21 22 21 21 20 20 19 19 19 18 17 16 16 15 15 14 13 13 12 11 11 11 11 11 11 11 11 12 13 13 13 12 13 13 12 11 11 11 10 10 10 9 9 11 12 12 12 13 12 12 13 12
15 17 17 17 17 17 18 20 21 23 24 25 25 26 26 27 27 27 27 27 26 26 25 24 21 19 18 16 14 15 18 20 21 21 21 20 20 19 19 18 17 17 16 15 14 13 12 12 12 12 12 12 11 11 11 11 10 10 11 12 13 14 14 14 12 12 12 12 11 11 11 10 11 11 9 9 10 11 12 12 11 11 12 13 13
15 16 16 15 16 17 18 20 21 22 23 25 26 26 27 27 27 26 26 26 25 24 24 22 20 19 18 16 15 16 18 19 19 19 18 18 18 17 17 16 15 15 14 14 12 10 10 10 11 11 12 11 11 10 10 11 11 12 13 14 14 14 14 14 12 11 10 10 10 10 10 10 11 11 9 9 9 9 11 11 11 10 12 13 12
16 16 15 15 16 17 18 20 21 22 24 25 26 26 26 26 26 25 25 25 24 23 21 20 18 17 17 16 15 16 17 17 17 17 16 16 16 16 15 14 13 13 13 12 11 10 10 10 10 11 11 11 11 11 12 13 13 14 14 15 15 14 14 13 11 9 8 8 9 9 9 11 11 10 9 9 8 8 9 12 12 12 13 13 12
17 16 16 17 18 19 20 21 22 23 24 25 26 26 26 26 25 25 24 23 23 22 20 19 18 17 16 16 16 16 16 16 16 16 16 16 15 15 14 13 13 13 13 13 12 11 10 10 10 10 12 12 13 13 14 14 15 16 16 16 15 14 13 12 11 8 7 7 8 9 9 10 12 11 9 10 9 8 8 11 12 12 12 13 12
18 19 19 20 21 22 22 22 23 23 24 25 26 26 26 25 25 24 23 23 22 22 21 20 19 18 17 17 17 17 17 17 16 16 16 15 15 15 14 14 14 14 13 13 11 11 10 11 11 12 13 13 13 13 14 15 15 16 16 16 16 15 13 13 11 9 6 6 8 9 8 9 11 10 10 11 11 9 9 10 11 11 12 12 12
19 21 22 23 23 23 23 23 23 24 24 25 25 25 25 24 24 24 23 23 22 22 21 20 19 18 18 17 17 17 17 17 17 17 16 15 15 15 14 14 14 14 14 13 12 11 11 12 12 13 13 13 13 13 14 14 14 14 15 15 16 16 15 14 12 9 7 6 7 8 8 9 10 10 9 10 11 9 9 11 11 11 11 11 11
19 22 23 23 23 23 23 23 22 22 23 23 24 24 23 23 22 22 22 21 21 20 19 18 18 17 17 17 17 17 17 17 17 16 15 15 14 14 14 14 14 14 14 13 12 11 11 11 11 12 12 12 12 12 12 12 12 11 12 12 14 15 15 15 13 10 7 6 6 7 8 9 10 9 9 9 10 9 10 11 11 12 12 11 11
17 20 22 23 23 22 22 21 21 21 21 21 21 22 21 21 21 21 21 20 19 18 17 16 16 15 15 16 16 16 15 16 15 15 14 14 13 13 13 13 13 13 13 12 11 10 10 10 10 10 11 11 11 10 10 9 9 9 9 9 9 10 12 13 13 11 9 7 7 7 8 9 9 9 9 9 10 11 11 11 12 12 12 12 11
16 19 20 21 22 21 21 20 20 20 20 20 20 21 21 21 21 21 20 19 19 18 17 16 15 15 14 14 14 14 14 13 13 13 13 12 12 12 12 12 12 12 12 11 10 9 8 8 9 9 9 9 9 9 8 7 6 5 6 7 7 7 8 9 10 11 11 10 9 7 7 7 8 9 9 9 10 11 11 12 13 13 14 13 12
Wind_Direction
214 216 219 221 223 227 230 233 234 236 238 240 244 247 250 250 247 245 246 249 251 254 254 253 252 252 254 254 254 256 259 263 268 269 264 259 258 259 259 258 261 265 268 273 276 277 280 285 286 284 285 291 297 297 293 292 290 289 297 304 310 316 307 283 262 284 307 319 327 332 338 338 341 348 352 353 355 357 0 1 357 354 351 347 349
215 217 219 220 223 226 229 232 235 236 238 240 243 245 247 248 246 246 248 250 253 255 256 256 255 255 257 259 259 258 258 260 264 264 260 255 254 255 255 255 257 259 260 265 269 269 273 279 281 280 282 286 291 291 290 292 292 293 304 311 316 331 335 316 293 288 307 319 327 331 334 334 336 342 346 347 347 347 351 354 354 354 352 350 354
217 218 219 221 224 225 227 230 233 235 237 238 240 241 243 245 245 246 249 253 255 255 256 258 260 261 261 262 261 257 256 258 260 262 260 257 257 258 258 258 258 258 260 263 267 270 272 279 283 281 278 279 283 285 289 295 297 302 314 319 319 328 339 335 321 300 301 314 323 329 332 334 335 337 340 341 342 343 345 347 348 351 352 352 352
219 218 219 222 224 225 226 228 230 233 235 236 237 238 240 241 243 245 249 253 255 256 257 258 261 262 260 260 259 257 257 258 261 262 260 259 261 263 263 262 259 259 263 266 269 272 275 280 284 279 273 275 278 281 289 299 307 314 320 325 327 332 340 343 338 323 309 312 321 328 332 332 331 335 339 340 339 341 343 344 345 347 350 351 348
220 219 220 221 222 224 226 227 228 230 232 234 235 235 236 239 241 244 247 251 254 256 257 258 259 259 259 260 260 261 261 262 264 265 262 262 264 266 265 262 260 263 269 271 270 270 272 277 279 276 274 276 273 276 287 294 305 315 321 324 329 334 337 339 340 336 326 317 319 325 330 331 332 337 344 344 340 341 343 342 343 345 345 345 345
221 220 220 220 221 223 224 225 227 229 231 233 234 234 235 236 240 243 246 249 253 255 255 256 257 259 260 260 260 263 264 264 266 266 265 264 264 266 265 261 260 262 266 270 268 264 265 269 272 271 270 271 267 273 284 285 290 305 318 324 328 332 335 336 338 337 333 326 323 325 330 334 335 336 341 345 344 343 342 341 344 345 344 342 341
221 220 220 220 221 223 223 225 227 228 230 232 233 234 234 235 238 241 245 248 250 252 253 255 257 259 261 261 262 264 264 264 265 264 263 262 263 266 265 262 262 262 263 267 264 260 262 265 269 267 261 262 267 278 286 278 276 298 316 324 327 329 331 333 334 336 335 333 331 329 332 336 339 339 342 348 351 350 348 346 342 339 338 337 336
220 221 221 220 222 224 225 226 228 229 230 231 232 233 233 234 237 239 243 245 247 249 251 255 259 261 261 262 264 265 263 264 264 262 260 261 262 263 264 266 267 263 261 262 259 260 263 263 262 261 257 262 267 273 274 262 267 298 315 323 326 327 331 333 334 337 339 339 337 337 340 344 349 350 349 352 353 347 345 344 337 331 330 329 331
218 220 220 221 223 225 226 227 228 228 229 230 231 232 233 235 236 239 242 244 245 248 252 256 261 262 262 262 262 263 263 265 264 262 262 263 263 264 266 269 267 260 259 266 278 292 294 286 273 252 235 226 235 248 239 239 284 308 317 323 326 330 334 339 343 345 347 349 347 347 348 348 348 350 350 350 347 339 338 339 334 330 329 328 331
218 218 219 223 226 226 226 227 227 227 227 229 230 232 234 235 236 238 241 244 245 248 252 256 260 263 263 262 261 262 264 264 263 263 265 268 269 269 271 274 271 269 275 286 297 303 296 281 262 227 212 203 202 211 208 232 309 324 324 328 334 342 352 1 8 9 7 7 1 356 354 346 344 347 346 343 343 341 341 340 335 335 336 335 337
219 218 219 223 226 227 226 226 226 226 226 228 230 231 233 235 237 239 242 243 245 247 250 253 257 260 262 261 262 263 262 260 260 262 264 266 267 268 272 276 270 265 271 277 274 269 259 242 218 208 207 205 200 192 185 193 339 343 341 352 4 12 22 30 30 31 27 20 14 10 3 348 343 345 343 341 344 344 344 343 342 342 342 340 338
220 221 222 222 223 225 226 226 225 225 226 228 229 231 234 236 237 239 241 243 245 246 248 251 253 257 259 259 260 261 258 254 255 259 261 260 258 257 257 260 258 256 262 265 256 252 252 231 201 196 199 196 190 186 178 159 118 93 45 44 43 39 42 46 46 47 42 34 30 24 12 354 346 344 340 338 338 340 344 344 344 343 341 338 333
224 224 224 223 223 223 224 225 225 225 226 227 229 230 232 234 237 238 240 244 246 246 246 248 250 252 253 254 254 253 250 249 251 254 258 256 251 249 250 253 254 251 252 252 247 244 241 224 203 194 187 180 178 175 164 144 130 118 95 78 72 66 62 59 58 55 52 53 50 36 21 8 359 352 346 338 333 335 337 337 340 342 341 341 337
226 226 226 225 224 222 222 223 224 227 228 227 228 230 231 234 237 240 242 244 245 245 244 244 245 247 248 247 245 242 242 246 251 253 254 252 248 248 250 249 247 244 246 250 251 245 234 221 211 200 185 173 167 160 147 135 126 115 101 92 86 81 75 68 65 63 61 64 60 50 45 41 33 27 21 8 351 346 345 346 351 350 346 355 4
228 226 225 225 224 222 220 220 224 229 231 229 228 228 231 235 237 239 242 243 242 242 240 238 237 238 240 238 235 235 240 248 254 255 252 248 245 246 247 245 244 243 243 243 243 237 227 218 211 198 173 152 143 141 135 128 122 112 102 95 89 83 78 75 73 73 71 71 68 61 58 55 49 45 43 42 39 35 31 29 29 23 18 28 38
232 227 225 224 222 220 218 217 217 221 229 242 244 237 231 231 234 235 234 234 234 232 228 226 226 227 227 225 223 225 238 250 255 257 256 251 245 243 242 241 237 229 221 220 220 218 213 206 197 175 138 123 121 125 126 122 117 111 103 98 93 88 85 84 84 83 81 79 76 71 66 61 56 51 48 48 48 49 49 46 42 36 32 34 35
233 229 225 222 219 217 217 215 213 214 219 233 255 257 241 229 227 227 223 220 217 212 206 205 209 212 210 207 208 212 227 249 258 263 266 263 253 243 235 229 222 211 201 195 190 184 179 174 162 141 127 123 123 125 123 118 114 111 106 101 96 91 88 87 86 84 83 82 79 75 70 65 60 56 51 48 46 46 47 44 39 35 32 28 19
235 231 228 224 218 215 216 216 215 217 220 222 230 243 240 224 217 215 213 208 196 188 191 189 182 183 185 181 189 200 206 238 263 271 278 276 252 222 210 193 171 156 149 146 147 147 142 133 130 128 123 120 122 123 118 112 110 110 107 102 94 86 82 84 84 82 81 78 75 72 68 64 60 57 54 52 51 50 49 47 43 41 41 32 16
239 233 230 228 223 219 219 219 216 214 214 215 217 221 219 209 201 194 190 185 172 166 176 174 154 150 160 158 159 171 166 148 297 298 300 292 162 163 165 155 138 128 124 124 125 127 130 130 128 125 119 115 113 110 105 102 103 106 106 101 93 84 79 81 79 77 74 70 66 64 62 61 59 57 55 54 56 57 56 53 51 50 48 40 29
247 238 231 227 225 222 219 215 208 203 205 210 211 208 202 194 187 179 172 167 160 159 163 160 146 141 145 142 135 133 122 100 77 64 79 95 128 145 141 131 123 119 116 114 114 116 121 123 122 121 120 118 113 103 98 98 101 103 103 100 96 92 88 84 79 74 71 67 63 61 60 59 57 56 55 54 56 60 59 57 55 53 49 44 41
249 241 232 224 221 219 214 206 201 198 202 204 201 199 195 184 175 171 167 162 159 157 156 152 143 133 130 130 124 112 100 95 88 87 100 110 121 134 132 124 121 117 111 108 108 109 111 114 116 120 122 121 115 105 98 98 99 99 98 98 99 98 93 86 79 73 69 66 63 60 58 56 55 54 54 55 56 59 60 58 56 54 50 44 40
239 234 227 220 214 208 201 196 195 194 193 190 186 183 179 171 165 164 162 158 154 149 145 140 132 122 119 121 119 110 101 99 101 108 116 120 121 124 123 122 126 126 122 120 121 119 117 116 115 115 117 119 117 109 101 98 96 96 98 100 100 96 88 82 76 73 71 69 66 62 58 56 55 54 54 55 55 56 58 57 55 55 54 51 47
224 220 216 210 204 199 194 191 188 185 181 178 173 165 157 155 157 158 156 151 144 137 132 129 124 118 113 111 111 112 111 109 114 120 124 125 125 124 121 120 127 132 131 129 127 125 125 126 123 118 119 121 118 109 101 99 99 99 101 100 96 89 83 80 80 79 78 75 70 66 61 58 56 55 53 53 53 52 53 53 51 51 52 51 50
209 208 206 202 197 193 192 189 184 179 175 171 163 154 149 148 148 149 148 144 137 130 128 129 128 123 116 114 116 118 118 117 120 125 128 128 128 128 126 124 128 132 132 130 127 125 125 128 129 129 128 123 115 107 102 102 103 103 101 95 88 83 81 82 84 84 80 76 72 68 64 60 56 53 51 50 50 49 48 47 47 46 47 48 47
198 198 197 195 193 190 186 179 172 170 170 166 157 149 145 142 140 140 140 136 131 128 127 128 128 125 123 124 124 123 124 123 123 125 129 131 131 132 130 127 128 131 129 126 124 121 122 129 133 133 130 123 115 109 106 106 105 101 97 90 84 82 83 85 86 83 79 76 74 71 66 61 56 53 50 47 45 43 40 39 39 39 39 41 43
186 188 186 184 182 176 168 157 151 153 157 155 149 142 138 135 133 132 129 126 124 125 125 125 125 126 127 127 125 123 125 126 127 128 129 129 132 133 130 127 129 131 130 128 122 118 125 132 133 130 127 122 116 113 110 108 106 100 95 90 86 84 85 86 85 82 80 78 76 72 67 62 57 53 49 44 42 40 36 34 33 32 31 30 33
124 132 142 148 152 155 151 141 132 129 130 130 126 123 122 122 121 120 120 119 118 119 121 123 126 126 125 123 124 126 129 129 130 130 130 131 135 137 137 136 139 142 144 143 134 128 133 135 133 131 128 122 116 114 111 108 105 99 93 90 88 85 85 85 83 83 82 81 78 74 67 60 55 49 44 41 40 37 34 32 31 29 27 26 26
88 92 96 101 106 115 123 123 119 115 112 110 109 109 110 110 110 112 116 119 119 121 123 124 124 124 124 125 128 129 128 126 124 126 132 140 145 150 153 155 157 159 160 158 149 142 140 139 135 131 127 120 115 112 109 104 102 99 95 93 92 90 89 86 84 83 81 78 74 68 60 53 48 43 39 37 35 32 29 27 26 24 22 23 24
84 87 90 91 93 94 95 98 102 105 105 103 103 104 105 107 108 111 116 118 120 124 125 124 125 127 127 129 130 128 124 121 121 125 133 138 145 155 161 165 168 169 169 164 153 145 141 138 133 127 122 118 115 111 108 107 105 102 99 97 94 91 87 82 79 77 74 69 64 59 52 46 42 37 35 33 30 27 23 21 20 18 17 21 24
85 87 89 90 91 94 95 94 96 100 101 103 104 104 105 108 110 110 112 114 116 118 118 119 124 127 125 123 123 122 119 116 116 120 123 123 128 131 133 139 143 144 147 149 144 139 136 132 128 124 120 118 115 112 111 111 106 102 99 96 90 85 81 77 76 75 70 65 62 56 49 43 37 31 28 26 22 19 17 17 16 15 16 20 21
87 87 90 92 93 95 96 99 101 103 104 104 104 102 102 102 102 102 105 107 108 109 111 115 120 120 117 116 115 113 112 109 107 109 112 113 115 117 120 125 130 136 142 143 136 131 130 127 123 122 121 117 114 112 112 110 105 102 98 91 85 81 79 78 77 76 72 67 61 53 45 38 31 25 22 19 14 12 12 14 14 16 20 23 19
90 91 93 96 98 99 100 103 105 106 107 107 107 107 105 101 98 98 101 105 108 110 113 116 116 113 111 110 110 109 109 106 103 104 106 108 110 114 118 124 130 137 144 140 129 124 125 123 119 119 118 114 111 111 111 108 106 103 97 91 86 82 81 81 78 73 67 59 50 43 36 30 25 21 19 17 15 14 15 16 18 20 22 23 21
96 98 99 100 100 100 101 103 103 104 105 106 106 107 106 105 105 105 106 109 112 113 114 113 111 108 105 104 104 106 107 106 104 103 103 106 109 112 117 124 130 135 136 130 122 119 120 119 116 115 115 114 114 113 110 105 103 100 96 94 91 87 84 81 72 63 57 49 42 38 32 26 24 22 22 22 23 23 22 21 21 22 21 19 19
101 103 105 106 105 105 105 106 107 107 108 108 107 106 105 107 110 111 111 110 108 107 108 109 108 106 103 101 101 102 104 106 108 107 107 109 111 113 117 121 124 125 125 122 119 117 117 116 114 115 116 117 116 114 108 103 101 100 98 95 92 88 81 70 60 54 47 41 38 36 31 28 27 26 25 26 27 28 26 24 21 19 17 15 12
101 105 110 113 113 113 113 114 115 115 114 113 112 110 109 109 110 111 111 109 104 100 99 100 101 102 101 100 100 101 103 106 110 113 115 117 119 120 120 118 115 114 116 118 119 118 117 116 115 115 116 114 112 110 107 104 103 101 98 94 87 78 68 57 50 44 39 36 35 33 30 27 26 27 28 29 29 28 24 21 20 16 13 13 10
105 107 112 115 117 117 118 119 119 117 116 114 111 110 111 111 112 112 110 108 104 100 97 96 96 97 97 97 99 102 105 110 115 118 121 124 127 125 120 114 111 109 110 113 115 115 114 113 112 112 112 110 109 109 108 106 104 98 92 85 75 64 54 46 40 36 32 32 32 29 26 24 22 23 26 27 30 31 24 19 21 19 13 12 10
111 112 113 116 119 119 118 118 118 116 114 113 112 113 114 114 114 112 110 108 106 104 102 100 98 95 93 92 94 97 102 109 115 117 119 125 127 123 117 115 114 111 108 109 111 111 109 108 109 109 110 110 110 109 106 102 98 90 82 73 63 54 47 40 35 32 30 29 27 24 25 25 25 26 25 24 27 31 27 21 21 20 16 14 11
110 113 115 117 121 122 120 119 119 118 116 115 115 116 116 115 114 113 111 109 107 105 102 101 98 96 95 95 97 99 102 105 107 107 110 114 116 117 117 117 115 112 110 109 110 110 109 109 109 110 110 109 108 106 102 97 89 80 71 61 53 47 41 34 31 29 27 27 26 26 30 34 35 33 31 26 25 28 28 26 22 16 14 14 13
112 114 116 119 122 125 125 125 123 120 118 117 118 120 119 117 116 114 112 109 106 103 101 99 99 100 101 103 104 105 102 99 98 99 102 105 108 111 114 113 112 111 111 111 111 111 111 111 111 109 108 106 103 99 93 85 76 66 56 49 44 39 35 32 30 30 30 30 31 33 36 39 39 36 32 27 23 23 25 26 25 21 16 13 11
117 119 123 125 127 130 133 132 128 125 123 122 122 123 122 120 118 116 114 110 106 102 101 100 99 101 103 105 104 103 102 101 100 101 103 104 105 108 110 110 110 111 111 111 112 111 110 110 109 106 102 98 92 85 78 70 64 56 49 45 44 42 40 40 38 37 36 36 37 39 40 39 36 34 31 27 25 27 28 27 27 26 21 17 13
113 117 122 126 130 135 137 135 132 131 130 129 127 125 124 122 120 119 116 112 108 104 101 99 98 98 100 101 101 105 108 109 108 106 105 105 106 105 105 106 108 109 110 110 110 109 108 106 104 100 96 92 85 80 74 66 60 56 52 50 50 49 47 46 44 42 41 40 40 41 41 39 35 32 28 24 26 30 30 27 26 24 21 19 16
116 119 121 125 131 136 136 135 135 135 133 132 129 127 127 125 123 120 117 114 111 108 105 102 102 102 103 103 105 110 112 112 111 109 107 106 105 104 103 103 104 105 105 106 106 107 107 105 102 98 94 89 83 77 71 64 58 56 56 56 56 53 49 48 48 46 44 44 44 43 42 40 39 37 29 23 26 29 27 24 23 22 19 19 18
126 125 125 127 131 133 133 134 135 134 133 131 129 128 128 126 125 123 120 116 114 112 110 109 108 107 106 107 109 110 111 110 109 108 106 105 104 103 101 102 102 102 103 103 103 103 102 101 99 95 89 84 80 74 69 65 63 63 64 63 59 54 49 47 46 46 45 45 45 45 42 39 38 35 27 21 24 28 27 23 18 16 16 18 20
133 127 126 129 132 132 133 135 133 131 130 130 129 129 129 128 126 125 122 119 117 115 113 113 112 111 110 110 110 109 110 109 108 107 106 104 103 102 102 103 103 103 103 101 99 99 98 97 97 95 90 86 83 79 78 77 75 72 69 65 59 53 47 41 38 40 42 42 42 44 41 36 33 30 23 18 18 21 25 24 19 16 20 22 22
139 132 133 136 138 137 136 135 133 132 132 131 129 129 129 130 128 126 124 122 120 119 118 117 116 115 114 114 113 112 112 111 109 108 107 106 104 104 104 105 104 104 103 103 102 101 99 96 97 97 97 97 95 91 88 84 77 70 64 58 53 48 43 36 33 35 41 41 41 44 39 33 29 26 19 14 14 15 22 29 29 26 24 23 19
142 140 143 145 145 143 140 138 137 137 136 135 133 130 130 131 131 129 128 127 126 126 126 125 123 121 120 119 119 118 115 113 112 110 108 107 107 106 106 107 106 105 105 106 104 101 97 95 98 104 107 106 102 95 89 82 74 67 60 55 50 46 40 33 28 31 42 44 40 39 35 29 27 26 22 20 20 17 19 26 28 24 21 20 16
146 146 148 148 147 145 143 142 141 139 137 137 137 135 134 134 134 134 134 134 134 134 134 132 130 128 127 125 123 120 117 114 113 111 109 107 106 106 106 108 107 106 106 104 101 99 99 100 104 109 111 109 103 96 90 83 75 68 61 55 50 46 41 33 26 29 45 50 39 33 28 21 19 19 22 26 27 22 17 19 20 17 15 17 14
149 146 146 146 145 144 143 142 141 141 140 139 140 139 139 139 140 140 140 141 141 140 139 137 134 131 129 128 126 123 119 116 113 111 109 107 104 104 104 105 106 107 108 108 106 106 107 108 110 112 113 111 106 100 94 86 77 70 62 55 49 45 41 36 34 38 50 53 39 28 20 13 10 12 19 27 29 25 19 19 19 15 11 11 12
148 145 143 143 143 143 144 144 145 146 146 145 144 144 144 144 144 145 145 144 143 142 139 136 133 131 130 131 130 127 124 121 117 114 112 109 107 106 105 106 107 111 114 116 117 116 114 113 115 116 115 112 108 103 97 87 77 69 60 52 47 43 40 39 40 43 45 41 30 20 10 3 3 7 14 20 24 23 20 19 18 15 11 11 12
147 148 146 146 146 147 149 151 151 152 153 152 150 150 150 151 151 150 149 147 145 143 141 137 135 134 135 136 135 132 130 128 126 123 121 118 115 115 115 114 115 116 117 120 122 121 117 115 116 114 112 110 108 104 99 89 76 64 54 46 41 39 38 38 38 37 32 23 13 8 3 359 360 4 8 14 19 21 20 17 16 15 12 10 9
150 152 152 152 153 154 156 158 158 159 159 159 159 159 159 158 157 155 153 151 148 147 145 143 140 139 139 139 139 138 138 137 137 136 132 127 124 124 125 125 125 126 127 128 127 124 120 119 118 115 111 107 103 101 98 93 80 62 47 38 32 30 30 31 30 28 24 19 14 8 2 359 2 7 11 16 21 21 18 16 16 17 15 13 10